Home   Weather   Leverkusen   Past weeks

Flag for Germany Past Weather in Leverkusen, North Rhine-Westphalia, Germany — Yesterday and Last 2 Weeks

Now
48 °F

Partly sunny.


Feels Like: 48 °F
Forecast: 39 / 64 °F
Wind: 2 mph from North

Location: Koeln / Bonn

Current Time: Apr 29, 2017 at 11:56:50 am

Latest Report: Apr 29, 2017 at 11:20 am


Visibility: N/A

Pressure: 30.09 "Hg

Humidity: 54%

Dew Point: 32 °F

Location of LeverkusenLocation

Past Weather in Leverkusen — Graph

°F

Leverkusen Temperature Yesterday

Maximum temperature yesterday: 52 °F (at 12:50 pm)
Minimum temperature yesterday: 36 °F (at 5:50 am)
Average temperature yesterday: 45 °F

High & Low Weather Summary for the Past Weeks

 TemperatureHumidityPressure
High61 °F (Apr 24, 3:20 pm)100% (Apr 17, 3:20 am)30.63 "Hg (Apr 17, 3:20 am)
Low25 °F (Apr 20, 6:20 am)32% (Apr 20, 3:50 pm)29.68 "Hg (Apr 25, 2:50 am)
Average44 °F70%30.13 "Hg
* Reported Apr 14 10:20 am — Apr 29 10:50 am, Leverkusen, Weather by CustomWeather, © 2017

Note: Actual official high and low records may vary slightly from our data, if they occured in-between our weather recording intervals... More about our weather records

Advertising

Leverkusen Weather History for the Previous 24 Hours

Scroll right to see more
 ConditionsComfort  
Time TempWeatherWind HumidityBarometerVisibility
10:50 am
Sat, Apr 29
46 °FPartly sunny.3 mph66%30.09 "HgN/A
10:20 am46 °FPartly sunny.5 mph66%30.09 "HgN/A
9:50 am48 °FScattered clouds.3 mph66%30.07 "HgN/A
9:20 am45 °FPassing clouds.2 mph76%30.07 "HgN/A
8:50 am45 °FPassing clouds.2 mph76%30.07 "HgN/A
8:20 am41 °FPartly sunny.3 mph87%30.07 "HgN/A
7:50 am37 °FPartly sunny.3 mph93%30.07 "HgN/A
7:20 am36 °FFog.2 mph100%30.07 "HgN/A
6:50 am36 °FFog.2 mph100%30.07 "HgN/A
6:20 am36 °FFog.1 mph100%30.07 "HgN/A
5:56 am36 °FFog.1 mph93%30.07 "HgN/A
5:50 am36 °FFog.1 mph93%30.07 "HgN/A
5:28 am37 °FFog.1 mph93%30.07 "HgN/A
5:20 am37 °FFog.1 mph93%30.07 "HgN/A
4:50 am37 °FFog.1 mph93%30.07 "HgN/A
4:20 am37 °FFog.2 mph93%30.04 "HgN/A
3:50 am39 °FFog.1 mph93%30.04 "HgN/A
3:20 am39 °FFog.1 mph93%30.04 "HgN/A
2:50 am41 °FFog.3 mph87%30.04 "HgN/A
2:20 am41 °FFog.2 mph93%30.04 "HgN/A
1:50 am43 °FFog.1 mph93%30.04 "HgN/A
1:20 am41 °FFog.2 mph100%30.04 "HgN/A
12:50 am43 °FFog.2 mph93%30.01 "HgN/A
12:20 am43 °FFog.3 mph93%30.01 "HgN/A
11:50 pm
Fri, Apr 28
43 °FFog.1 mph93%30.01 "HgN/A
11:20 pm43 °FFog.2 mph93%30.01 "HgN/A
10:50 pm43 °FFog.3 mph93%30.01 "HgN/A
10:20 pm41 °FFog.5 mph93%29.98 "HgN/A
9:50 pm45 °FSprinkles. Fog.2 mph93%29.98 "HgN/A
9:20 pm45 °FSprinkles. Fog.2 mph93%29.98 "HgN/A
8:50 pm45 °FScattered showers. Fog.3 mph93%29.98 "HgN/A
8:20 pm46 °FScattered showers. Fog.2 mph87%29.98 "HgN/A
7:50 pm46 °FSprinkles. Fog.5 mph82%29.98 "HgN/A
7:33 pm46 °FSprinkles. Broken clouds.13 mph82%29.98 "HgN/A
7:20 pm48 °FSprinkles. Broken clouds.12 mph76%29.95 "HgN/A
6:50 pm52 °FScattered showers. Broken clouds.6 mph62%29.95 "HgN/A
6:20 pm50 °FScattered showers. Broken clouds.2 mph76%29.95 "HgN/A
5:50 pm48 °FScattered showers. Partly sunny.2 mph82%29.95 "HgN/A
5:20 pm46 °FSprinkles. Broken clouds.3 mph76%29.95 "HgN/A
4:50 pm48 °FRain showers. Partly sunny.9 mph76%29.95 "HgN/A
4:20 pm52 °FSprinkles. Broken clouds.3 mph58%29.95 "HgN/A
3:50 pm52 °FSprinkles. Broken clouds.6 mph58%29.95 "HgN/A
3:20 pm52 °FBroken clouds.5 mph58%29.95 "HgN/A
2:50 pm52 °FBroken clouds.6 mph58%29.95 "HgN/A
2:20 pm50 °FPartly sunny.9 mph62%29.95 "HgN/A
1:50 pm50 °FPartly sunny.13 mph62%29.95 "HgN/A
1:20 pm50 °FPartly sunny.9 mph54%29.95 "HgN/A
12:50 pm52 °FBroken clouds.9 mph50%29.95 "HgN/A
12:20 pm50 °FPartly sunny.7 mph58%29.95 "HgN/A
11:50 am50 °FPartly sunny.9 mph54%29.95 "HgN/A
11:20 am50 °FPartly sunny.7 mph54%29.95 "HgN/A
Weather by CustomWeather, © 2017

See weather overviewHow to use our weather pages